"TOA5","AWS1","CR1000","7964","CR1000.Std.14","CPU:AWS1_114.CR1","64363","TBL110"
"TIMESTAMP","RECORD","Wind_spd_WVc(1)","Wind_spd_WVc(2)","Air_Temp_Avg","Humidity_Avg","SW_upper_Wm2_Avg","Rain_Tot","Press_Avg","Issui_Tot","Depth_cm","SR50A_Raw","Quality","Ground_Temp_Avg(1)","Ground_Temp_Avg(2)","SW_lower_Wm2_Avg","Albedo_Avg","SWC_per(1)","SWC_per(2)","Period(1)","Period(2)"
"TS","RN","","","","","","","","","","","","","","","","","","",""
"","","WVc","WVc","Avg","Avg","Avg","Tot","Avg","Tot","Smp","Smp","Smp","Avg","Avg","Avg","Avg","Smp","Smp","Smp","Smp"
"2017-01-01 00:00:00",268765,0.394,167.8,-2.077,77.9,0,0,869.1647,0,4.785,3.144,169,2.334,3.101,0.6484543,0,51.82,59.56,33.75,35.58
"2017-01-01 00:10:00",268766,0.45,165.4,-2.174,78.8,0,0,869.1077,0,4.934,3.143,169,2.328,3.101,0.6332857,0,51.77,59.56,33.73,35.58
"2017-01-01 00:20:00",268767,0.308,228.3,-2.067,78.08,0,0,869.1077,0,4.884,3.143,168,2.337,3.101,0.6598307,0,51.77,59.5,33.73,35.56
"2017-01-01 00:30:00",268768,0.359,171.8,-2.075,78.61,0,0,869.1183,0,4.884,3.143,169,2.337,3.101,0.7622182,0,51.82,59.56,33.75,35.58
"2017-01-01 00:40:00",268769,0.38,271.5,-2.017,77.36,0,0,869.1204,0,4.835,3.143,169,2.343,3.101,0.6939598,0,51.82,59.5,33.75,35.56
"2017-01-01 00:50:00",268770,0.727,173.9,-2.053,78.17,0,0,869.0888,0,4.884,3.143,169,2.331,3.101,0.7470496,0,51.77,59.5,33.73,35.56
"2017-01-01 01:00:00",268771,0.546,241.2,-2.095,78.63,0,0,869.0614,0,4.909,3.143,168,2.329,3.101,0.6863756,0,51.77,59.5,33.73,35.56
"2017-01-01 01:10:00",268772,0.494,268.5,-2.074,78.29,0,0,868.8781,0,4.884,3.143,172,2.33,3.101,0.6105329,0,51.82,59.5,33.75,35.56
"2017-01-01 01:20:00",268773,0.454,251.1,-2.186,79.81,0,0,868.9371,0,4.809,3.145,170,2.334,3.101,0.318539,0,51.77,59.5,33.73,35.56
"2017-01-01 01:30:00",268774,0.52,181.8,-2.323,82,0,0,868.9055,0,4.859,3.145,169,2.335,3.101,0.1630616,0,51.77,59.5,33.73,35.56
"2017-01-01 01:40:00",268775,0.622,214.4,-2.307,81.5,0,0,869.0108,0,4.834,3.145,177,2.344,3.102,0.3678366,0,51.77,59.5,33.73,35.56
"2017-01-01 01:50:00",268776,0.441,289.6,-2.289,81.5,0,0,869.1057,0,4.909,3.144,173,2.346,3.102,0.5574431,0,51.77,59.5,33.73,35.56
"2017-01-01 02:00:00",268777,0.408,252,-2.242,82.5,0,0,869.1478,0,4.785,3.145,168,2.341,3.101,0.6370779,0,51.77,59.5,33.73,35.56
"2017-01-01 02:10:00",268778,0.677,160.7,-2.343,84.6,0,0,869.1077,0,4.884,3.145,169,2.334,3.102,0.5195218,0,51.77,59.5,33.73,35.56
"2017-01-01 02:20:00",268779,0.847,187.7,-2.377,83.7,0,0,869.0825,0,4.834,3.145,170,2.341,3.102,0.379213,0,51.77,59.5,33.73,35.56
"2017-01-01 02:30:00",268780,0.81,171.5,-2.336,82.7,0,0,869.0909,0,4.859,3.145,168,2.342,3.103,0.6484542,0,51.77,59.5,33.73,35.56
"2017-01-01 02:40:00",268781,0.574,188.6,-2.333,82.6,0,0,868.9518,0,4.959,3.144,172,2.344,3.103,0.3147468,0,51.77,59.5,33.73,35.56
"2017-01-01 02:50:00",268782,0.358,278.8,-2.237,81.5,0,0,868.8844,0,4.934,3.144,168,2.344,3.102,0.5233139,0,51.77,59.5,33.73,35.56
"2017-01-01 03:00:00",268783,0.65,347,-2.128,80.3,0,0,868.8549,0,4.785,3.144,168,2.343,3.101,0.8115159,0,51.77,59.5,33.73,35.56
"2017-01-01 03:10:00",268784,0.186,260.3,-2.075,79.78,0,0,868.9835,0,4.735,3.144,168,2.334,3.101,0.6787913,0,51.71,59.5,33.72,35.56
"2017-01-01 03:20:00",268785,0.175,297.9,-2.019,79.43,0,0,868.9392,0,4.684,3.145,169,2.346,3.101,0.6446621,0,51.77,59.5,33.73,35.56
"2017-01-01 03:30:00",268786,0.628,176,-2.208,82.2,0,0,868.7326,0,4.785,3.145,169,2.341,3.101,0.4512635,0,51.77,59.5,33.73,35.56
"2017-01-01 03:40:00",268787,0.26,171.4,-2.106,80.9,0,0,868.8297,0,4.809,3.144,168,2.342,3.101,0.6067408,0,51.77,59.5,33.73,35.56
"2017-01-01 03:50:00",268788,0.31,218,-2.105,81.2,0,0,868.8338,0,4.735,3.145,169,2.359,3.101,0.6446621,0,51.71,59.5,33.72,35.56
"2017-01-01 04:00:00",268789,0.664,168.7,-2.257,83,0,0,868.6104,0,4.735,3.146,189,2.342,3.101,0.6484542,0,51.77,59.5,33.73,35.56
"2017-01-01 04:10:00",268790,1.193,176.4,-2.331,84,0,0,868.6019,0,4.66,3.147,189,2.348,3.101,0.6257015,0,51.77,59.5,33.73,35.56
"2017-01-01 04:20:00",268791,0.804,189.1,-2.321,84.1,0,0,868.5999,0,4.685,3.146,189,2.339,3.101,0.5157297,0,51.71,59.5,33.72,35.56
"2017-01-01 04:30:00",268792,1.038,204.6,-2.252,83.5,0,0,868.6019,0,4.76,3.145,190,2.354,3.101,0.6067408,0,51.77,59.5,33.73,35.56
"2017-01-01 04:40:00",268793,0.725,194,-2.085,81.6,0,0,868.6104,0,4.759,3.144,190,2.353,3.101,0.7394654,0,51.77,59.44,33.73,35.55
"2017-01-01 04:50:00",268794,0.577,288.2,-1.902,79.8,0,0,868.8275,0,4.635,3.144,191,2.359,3.101,0.7773867,0,51.77,59.44,33.73,35.55
"2017-01-01 05:00:00",268795,0.633,285.6,-1.813,79.92,0,0,869.0214,0,4.261,3.148,192,2.354,3.101,0.6939598,0,51.77,59.44,33.73,35.55
"2017-01-01 05:10:00",268796,0.427,294.1,-1.889,81.3,0,0,869.1077,0,4.236,3.149,190,2.366,3.101,0.6712071,0,51.77,59.44,33.73,35.55
"2017-01-01 05:20:00",268797,1.182,309,-1.922,82.6,0,0,869.1774,0,4.336,3.148,191,2.397,3.101,0.5726117,0,51.77,59.44,33.73,35.55
"2017-01-01 05:30:00",268798,0.782,24.75,-2.024,83.4,0,0,869.2911,0,4.386,3.148,188,2.397,3.101,0.1782301,0,51.77,59.44,33.73,35.55
"2017-01-01 05:40:00",268799,0.378,6.434,-2.128,83.1,0,0,869.3502,0,4.287,3.15,183,2.39,3.101,0.09480325,0,51.77,59.44,33.73,35.55
"2017-01-01 05:50:00",268800,0.011,257.9,-2.253,84.7,0,0,869.3712,0,4.137,3.151,179,2.361,3.101,0.02275278,0,51.77,59.5,33.73,35.56
"2017-01-01 06:00:00",268801,0.129,22.38,-2.282,84.1,0,0,869.4576,0,4.337,3.15,174,2.342,3.101,0.1630616,0,51.71,59.44,33.72,35.55
"2017-01-01 06:10:00",268802,0.406,172.2,-2.182,82.3,0,0,869.6136,0,4.386,3.149,179,2.353,3.103,0.784971,0,51.71,59.44,33.72,35.55
"2017-01-01 06:20:00",268803,0.305,27.33,-2.094,81.8,0,0,869.6347,0,4.337,3.149,179,2.341,3.104,0.7622182,0,51.77,59.44,33.73,35.55
"2017-01-01 06:30:00",268804,0.332,278,-2.074,81.5,0,0,869.7991,0,4.361,3.148,174,2.349,3.101,0.8494372,0,51.71,59.44,33.72,35.55
"2017-01-01 06:40:00",268805,0.295,340.7,-2.12,83.1,0,0,869.9024,0,4.387,3.149,169,2.387,3.101,0.6674149,0,51.71,59.44,33.72,35.55
"2017-01-01 06:50:00",268806,0.326,0.801,-2.229,85.2,0,0,870.1152,0,4.386,3.149,170,2.361,3.101,0.6257015,0,51.77,59.44,33.73,35.55
"2017-01-01 07:00:00",268807,0.595,123.5,-2.285,86.4,0,0,870.1111,0,4.237,3.152,174,2.346,3.101,1.076965,0,51.77,59.5,33.73,35.56
"2017-01-01 07:10:00",268808,0.595,153.3,-2.538,88.3,0.255643,0,870.1595,0,4.288,3.152,174,2.341,3.103,2.184267,5.681,51.71,59.44,33.72,35.55
"2017-01-01 07:20:00",268809,0.36,57.05,-2.54,88.8,0.5152189,0,870.3535,0,4.287,3.151,174,2.356,3.101,2.844098,6.037,51.77,59.44,33.73,35.55
"2017-01-01 07:30:00",268810,0.264,176.6,-2.333,87.8,1.982216,0,870.3787,0,4.362,3.15,174,2.355,3.103,4.92977,2.557,51.71,59.44,33.72,35.55
"2017-01-01 07:40:00",268811,0.293,299,-2.335,88,7.586698,0,870.385,0,4.337,3.15,173,2.363,3.101,12.27892,1.648,51.71,59.44,33.72,35.55
"2017-01-01 07:50:00",268812,0.434,194.3,-2.16,86.3,16.14091,0,870.3829,0,4.311,3.149,174,2.372,3.101,25.36556,1.581,51.77,59.44,33.73,35.55
"2017-01-01 08:00:00",268813,0.566,187.4,-2.075,85.8,18.35123,0,870.3724,0,4.286,3.149,174,2.406,3.101,26.85208,1.474,51.71,59.44,33.72,35.55
"2017-01-01 08:10:00",268814,0.372,259.3,-1.958,85.5,27.56618,0,870.3956,0,4.336,3.148,174,2.409,3.101,40.85641,1.493,51.71,59.44,33.72,35.55
"2017-01-01 08:20:00",268815,0.161,268.3,-1.691,83.6,44.37175,0,870.6127,0,4.236,3.146,173,2.409,3.1,65.15639,1.474,51.71,59.44,33.72,35.55
"2017-01-01 08:30:00",268816,0.183,229.1,-1.515,83.7,28.4629,0,870.7097,0,4.336,3.146,187,2.409,3.096,41.60725,1.473,51.77,59.44,33.73,35.55
"2017-01-01 08:40:00",268817,0.534,187.9,-1.729,85.5,28.28591,0,870.7076,0,4.536,3.145,181,2.407,3.101,40.13591,1.411,51.77,59.44,33.73,35.55
"2017-01-01 08:50:00",268818,0.545,167.2,-1.906,86.5,24.16023,0,870.6253,0,4.784,3.143,187,2.404,3.099,35.85838,1.456,51.71,59.44,33.72,35.55
"2017-01-01 09:00:00",268819,0.727,197.4,-1.467,85,38.49197,0,870.6253,0,4.836,3.137,182,2.392,3.112,79.23277,2.066,51.71,59.44,33.72,35.55
"2017-01-01 09:10:00",268820,0.793,159.8,-0.639,79.45,67.533,0,870.6253,0,4.785,3.137,169,2.399,3.163,105.9559,1.565,51.71,59.44,33.72,35.55
"2017-01-01 09:20:00",268821,0.796,174,-0.759,77.34,64.29587,0,870.6515,0,4.838,3.135,173,2.406,3.177,94.35154,1.466,51.71,59.38,33.72,35.54
"2017-01-01 09:30:00",268822,0.754,161.5,-0.386,75.67,70.63457,0,870.8087,0,4.742,3.134,169,2.405,3.169,99.71947,1.417,51.71,59.38,33.72,35.54
"2017-01-01 09:40:00",268823,0.606,165.4,-0.469,73.42,63.63725,0,870.8436,0,4.671,3.136,170,2.401,3.178,85.1874,1.339,51.71,59.44,33.72,35.55
"2017-01-01 09:50:00",268824,0.854,164.1,-0.481,73.45,91.38178,0,870.8055,0,5.105,3.132,170,2.384,3.161,87.07047,1.099,51.71,59.44,33.72,35.55
"2017-01-01 10:00:00",268825,0.494,138.3,-0.058,72.13,69.72739,0,870.7929,0,4.47,3.136,170,2.412,3.138,91.43905,1.313,51.71,59.44,33.72,35.55
"2017-01-01 10:10:00",268826,0.626,284.5,-0.224,70.89,79.62597,0,870.6628,0,4.581,3.136,173,2.409,3.088,112.9499,1.465,51.71,59.44,33.72,35.55
"2017-01-01 10:20:00",268827,0.488,262.5,-0.221,71.92,83.3961,0,870.7267,0,4.937,3.131,174,2.369,3.057,126.3256,1.485,51.71,59.44,33.72,35.55
"2017-01-01 10:30:00",268828,0.569,280.3,-0.06,70.67,83.31596,0,870.7833,0,4.688,3.134,174,2.326,3.016,119.4695,1.413,51.71,59.44,33.72,35.55
"2017-01-01 10:40:00",268829,0.733,105.8,0.116,69.15,100.5949,0,870.5493,0,4.493,3.133,174,2.322,3.014,142.6686,1.412,51.71,59.44,33.72,35.55
"2017-01-01 10:50:00",268830,0.532,96.7,0.291,67.76,128.2774,0,870.5283,0,4.667,3.132,173,2.321,3.013,136.5347,1.192,51.71,59.44,33.72,35.55
"2017-01-01 11:00:00",268831,0.318,318.1,0.065,67.11,129.2091,0,870.5283,0,4.466,3.134,174,2.321,3.013,136.9895,1.146,51.71,59.44,33.72,35.55
"2017-01-01 11:10:00",268832,0.432,340.2,0.256,67.26,115.7511,0,870.4398,0,4.59,3.134,174,2.321,3.013,141.0495,1.259,51.71,59.38,33.72,35.54
"2017-01-01 11:20:00",268833,0.413,298.3,0.037,68.46,93.70252,0,870.2881,0,4.566,3.134,174,2.321,3.029,112.4969,1.221,51.71,59.44,33.72,35.55
"2017-01-01 11:30:00",268834,0.204,285.8,0.278,67.52,179.3688,0,870.2028,0,4.493,3.132,174,2.33,3.052,173.2489,1.091,51.71,59.38,33.72,35.54
"2017-01-01 11:40:00",268835,0.237,288.6,0.436,68.44,98.97877,0,869.9974,0,4.591,3.133,177,2.36,3.099,110.5977,1.128,51.71,59.44,33.72,35.55
"2017-01-01 11:50:00",268836,0.227,276.1,0.363,68.63,116.9214,0,869.9625,0,4.35,3.134,173,2.373,3.108,120.1037,1.041,51.71,59.44,33.72,35.55
"2017-01-01 12:00:00",268837,0.385,322.7,0.58,66.94,203.4405,0,869.9138,0,4.462,3.131,174,2.365,3.082,262.0907,1.304,51.71,59.44,33.72,35.55
"2017-01-01 12:10:00",268838,0.345,329.4,0.537,68.52,153.9155,0,869.702,0,4.522,3.132,174,2.37,3.06,125.8253,0.818,51.71,59.38,33.72,35.54
"2017-01-01 12:20:00",268839,0.557,301.7,0.527,68.4,476.6813,0,869.6396,0,4.036,3.136,178,2.342,3.034,243.6289,0.576,51.71,59.38,33.72,35.54
"2017-01-01 12:30:00",268840,0.38,330.5,0.836,65.85,584.4043,0,869.6603,0,4.418,3.132,173,2.309,3.019,190.242,0.375,51.66,59.44,33.7,35.55
"2017-01-01 12:40:00",268841,0.765,309.6,0.473,66.32,217.3747,0,869.6393,0,4.418,3.133,179,2.299,3.017,109.1135,0.54,51.66,59.44,33.7,35.55
"2017-01-01 12:50:00",268842,0.678,29.95,0.617,62.99,291.3569,0,869.4708,0,4.372,3.131,183,2.317,3.014,129.5232,0.479,51.71,59.38,33.72,35.54
"2017-01-01 13:00:00",268843,0.75,292.2,0.39,60.64,167.3242,0,869.4287,0,4.64,3.134,187,2.33,3.023,62.71321,0.519,51.71,59.38,33.72,35.54
"2017-01-01 13:10:00",268844,0.35,281,-0.125,63.93,135.4247,0,869.4287,0,4.491,3.138,179,2.357,3.049,45.95532,0.484,51.71,59.38,33.72,35.54
"2017-01-01 13:20:00",268845,0.239,268.3,-0.424,64.7,79.85091,0,869.4287,0,4.143,3.139,174,2.374,3.08,51.05985,0.703,51.71,59.38,33.72,35.54
"2017-01-01 13:30:00",268846,0.194,272.7,-0.158,66.27,114.1743,0,869.4455,0,4.616,3.135,191,2.378,3.089,58.19954,0.548,51.71,59.38,33.72,35.54
"2017-01-01 13:40:00",268847,0.299,284.2,0.171,66.07,170.7589,0,869.4581,0,4.669,3.131,188,2.375,3.089,93.32114,0.609,51.71,59.38,33.72,35.54
"2017-01-01 13:50:00",268848,0.622,319.2,0.46,65.39,133.7436,0,869.4139,0,4.844,3.129,188,2.363,3.078,65.52873,0.576,51.71,59.38,33.72,35.54
"2017-01-01 14:00:00",268849,0.634,333.6,0.351,64.02,67.55764,0,869.3824,0,4.643,3.132,183,2.285,2.998,46.23619,0.703,51.71,59.38,33.72,35.54
"2017-01-01 14:10:00",268850,0.944,330.5,0.299,62.72,64.41734,0,869.4245,0,4.593,3.133,189,2.265,2.965,36.28485,0.575,51.66,59.32,33.7,35.52
"2017-01-01 14:20:00",268851,0.541,271.5,-0.074,64.67,46.22013,0,869.6456,0,4.391,3.137,186,2.232,2.923,27.09901,0.597,51.66,59.32,33.7,35.52
"2017-01-01 14:30:00",268852,0.075,242,-0.21,66.21,32.64886,0,869.8942,0,4.641,3.135,193,2.232,2.928,22.47577,0.691,51.66,59.38,33.7,35.54
"2017-01-01 14:40:00",268853,0.56,274.6,-0.211,65.36,55.33922,0,869.9342,0,4.185,3.139,190,2.242,2.97,34.91735,0.636,51.71,59.38,33.72,35.54
"2017-01-01 14:50:00",268854,0.411,278.5,-0.099,64.66,38.81212,0,870.0389,0,4.664,3.134,193,2.286,3.019,29.81577,0.768,51.71,59.38,33.72,35.54
"2017-01-01 15:00:00",268855,0.773,292.4,-0.129,64.46,33.83192,0,870.2057,0,4.599,3.135,191,2.362,3.065,22.04511,0.658,51.66,59.38,33.7,35.54
"2017-01-01 15:10:00",268856,0.55,315,-0.317,65.81,20.84472,0,870.2532,0,4.293,3.138,184,2.394,3.088,14.19996,0.683,51.66,59.38,33.7,35.54
"2017-01-01 15:20:00",268857,0.868,297.1,-0.226,64.54,16.89007,0,870.2667,0,4.59,3.136,189,2.403,3.095,12.79392,0.76,51.66,59.38,33.7,35.54
"2017-01-01 15:30:00",268858,0.831,280.7,-0.311,62.3,15.80902,0,870.2675,0,4.388,3.139,192,2.405,3.097,11.89181,0.755,51.66,59.38,33.7,35.54
"2017-01-01 15:40:00",268859,1.148,290.5,-0.223,63.19,14.24427,0,870.2686,0,4.639,3.135,193,2.406,3.098,11.19812,0.788,51.66,59.38,33.7,35.54
"2017-01-01 15:50:00",268860,0.637,265.4,-0.353,65.92,13.39505,0,870.2479,0,4.439,3.138,192,2.39,3.098,9.583234,0.716,51.66,59.38,33.7,35.54
"2017-01-01 16:00:00",268861,0.347,224.9,-0.606,68.75,12.12907,0,870.29,0,4.588,3.138,194,2.363,3.092,7.941803,0.655,51.71,59.38,33.72,35.54
"2017-01-01 16:10:00",268862,0.456,240.1,-0.683,68.78,10.45813,0,870.2858,0,4.887,3.135,200,2.33,3.105,6.186645,0.593,51.71,59.38,33.72,35.54
"2017-01-01 16:20:00",268863,1.315,294.2,-0.541,67.23,6.793851,0,870.4081,0,4.737,3.136,203,2.321,3.119,5.955404,0.899,51.66,59.38,33.7,35.54
"2017-01-01 16:30:00",268864,0.971,298.1,-0.645,68.03,4.234376,0,870.5323,0,4.56,3.139,195,2.323,3.122,6.584705,1.562,51.66,59.38,33.7,35.54
"2017-01-01 16:40:00",268865,1.545,293.2,-0.927,71.38,1.525507,0,870.5323,0,4.48,3.141,196,2.342,3.146,2.824242,1.783,51.71,59.38,33.72,35.54
"2017-01-01 16:50:00",268866,0.994,310,-1.129,71.92,0,0,870.5339,0,4.473,3.142,193,2.37,3.131,0.007582063,0,51.66,59.38,33.7,35.54
"2017-01-01 17:00:00",268867,0.282,261.3,-1.348,72.81,0,0,870.5574,0,4.636,3.142,194,2.377,3.099,0,0,51.66,59.38,33.7,35.54
"2017-01-01 17:10:00",268868,0.457,247.5,-1.544,73.28,0,0,870.5673,0,4.8,3.141,200,2.399,3.08,0,0,51.66,59.38,33.7,35.54
"2017-01-01 17:20:00",268869,1.694,288.4,-1.369,66.67,0,0,870.5642,0,4.544,3.142,195,2.406,3.098,0,0,51.66,59.32,33.7,35.52
"2017-01-01 17:30:00",268870,0.82,286,-1.446,67.22,0,0,870.6179,0,4.563,3.144,201,2.414,3.097,0,0,51.66,59.38,33.7,35.54
"2017-01-01 17:40:00",268871,0.255,288.5,-1.617,68.27,0,0,870.6236,0,4.212,3.148,194,2.408,3.097,0,0,51.66,59.32,33.7,35.52
"2017-01-01 17:50:00",268872,0.408,285.4,-1.884,70.5,0,0,870.6249,0,4.312,3.15,195,2.408,3.1,0,0,51.66,59.38,33.7,35.54
"2017-01-01 18:00:00",268873,0.086,76.72,-2.366,75.39,0,0,870.6295,0,4.437,3.149,199,2.408,3.1,0,0,51.66,59.38,33.7,35.54
"2017-01-01 18:10:00",268874,0.3,151.4,-2.415,75.2,0,0,870.8298,0,4.387,3.151,192,2.409,3.101,0.01896065,0,51.66,59.38,33.7,35.54
"2017-01-01 18:20:00",268875,0.408,169.7,-2.835,77.64,0,0,870.6633,0,4.736,3.148,192,2.409,3.113,0.01516852,0,51.66,59.38,33.7,35.54
"2017-01-01 18:30:00",268876,0.341,174.9,-2.627,74.52,0,0,870.6296,0,4.636,3.149,194,2.409,3.118,0.2730334,0,51.66,59.38,33.7,35.54
"2017-01-01 18:40:00",268877,0.248,174.2,-2.724,75.25,0,0,870.6591,0,4.239,3.154,186,2.41,3.093,0.07205047,0,51.66,59.32,33.7,35.52
"2017-01-01 18:50:00",268878,0.089,217.4,-2.841,76.25,0,0,870.6317,0,4.438,3.153,201,2.419,3.056,0.1403088,0,51.6,59.38,33.69,35.54
"2017-01-01 19:00:00",268879,0.274,176.4,-3.048,77.55,0,0,870.6253,0,4.216,3.156,197,2.41,3.057,0.07963474,0,51.66,59.38,33.7,35.54
"2017-01-01 19:10:00",268880,0.436,149.1,-3.369,79.61,0,0,870.6506,0,4.489,3.154,187,2.4,3.076,0.2806176,0,51.66,59.32,33.7,35.52
"2017-01-01 19:20:00",268881,0.555,163.1,-3.348,78.82,0,0,870.6253,0,4.688,3.152,194,2.396,3.074,0.291994,0,51.66,59.32,33.7,35.52
"2017-01-01 19:30:00",268882,0.732,168.3,-2.964,76.25,0,0,870.6042,0,4.537,3.15,194,2.38,3.064,0.6105329,0,51.66,59.32,33.7,35.52
"2017-01-01 19:40:00",268883,0.587,166.5,-2.933,75.85,0,0,870.4483,0,4.438,3.152,187,2.379,3.063,0.3640445,0,51.66,59.32,33.7,35.52
"2017-01-01 19:50:00",268884,0.488,180.8,-3.002,76.49,0,0,870.2797,0,4.04,3.157,188,2.367,3.06,0.204775,0,51.66,59.32,33.7,35.52
"2017-01-01 20:00:00",268885,0.35,129.3,-3.095,76.56,0,0,870.1385,0,4.116,3.157,202,2.365,3.066,0.1023875,0,51.66,59.32,33.7,35.52
"2017-01-01 20:10:00",268886,0.247,166.4,-3.236,77.47,0,0,870.1342,0,4.391,3.156,195,2.374,3.091,0.0379213,0,51.66,59.32,33.7,35.52
"2017-01-01 20:20:00",268887,0.474,166.2,-3.262,77.21,0,0,870.1891,0,4.19,3.156,186,2.371,3.088,0.2123593,0,51.6,59.32,33.69,35.52
"2017-01-01 20:30:00",268888,0.202,166.7,-3.292,77.75,0,0,870.1026,0,4.267,3.157,189,2.374,3.09,0.09480325,0,51.66,59.32,33.7,35.52
"2017-01-01 20:40:00",268889,0.35,219.6,-3.194,77.67,0,0,870.1891,0,4.213,3.155,189,2.384,3.101,0.4171398,0,51.66,59.32,33.7,35.52
"2017-01-01 20:50:00",268890,0.177,207.9,-3.144,77.01,0,0,870.3661,0,4.514,3.154,174,2.392,3.102,0.2540757,0,51.6,59.32,33.69,35.52
"2017-01-01 21:00:00",268891,0.332,183.7,-3.131,77.12,0,0,870.3535,0,4.433,3.152,178,2.407,3.103,0.3792199,0,51.66,59.32,33.7,35.52
"2017-01-01 21:10:00",268892,0.684,183.7,-2.836,75.95,0,0,870.2101,0,4.556,3.152,179,2.413,3.113,0.7167477,0,51.66,59.32,33.7,35.52
"2017-01-01 21:20:00",268893,0.674,165.8,-3.235,78.75,0,0,869.9803,0,4.279,3.156,196,2.402,3.112,0.1934083,0,51.6,59.32,33.69,35.52
"2017-01-01 21:30:00",268894,0.646,171.1,-3.308,79.69,0,0,869.8702,0,4.357,3.154,190,2.398,3.112,0.1289397,0,51.6,59.32,33.69,35.52
"2017-01-01 21:40:00",268895,1.033,177.3,-3.043,77.61,0,0,869.8547,0,4.48,3.154,224,2.392,3.104,0.4209496,0,51.6,59.32,33.69,35.52
"2017-01-01 21:50:00",268896,0.919,163.7,-3.436,79.71,0,0,869.7775,0,4.643,3.152,185,2.401,3.116,0.1024002,0,51.6,59.32,33.69,35.52
"2017-01-01 22:00:00",268897,0.996,175.1,-3.074,77.55,0,0,869.6295,0,4.61,3.151,190,2.433,3.141,0.3375544,0,51.66,59.32,33.7,35.52
"2017-01-01 22:10:00",268898,0.987,169.5,-2.811,75.64,0,0,869.5499,0,3.742,3.159,173,2.435,3.141,0.3982446,0,51.6,59.26,33.69,35.51
"2017-01-01 22:20:00",268899,0.861,176.7,-3.028,76.24,0,0,869.3381,0,4.611,3.151,196,2.427,3.136,0.1289552,0,51.6,59.32,33.69,35.52
"2017-01-01 22:30:00",268900,0.851,176.4,-2.827,74.66,0,0,869.1191,0,4.164,3.156,193,2.431,3.135,0.1668839,0,51.6,59.32,33.69,35.52
"2017-01-01 22:40:00",268901,0.914,164.6,-2.861,74.31,0,0,869.0722,0,4.909,3.146,208,2.429,3.133,0.2617033,0,51.6,59.32,33.69,35.52
"2017-01-01 22:50:00",268902,0.975,178.3,-2.295,70.87,0,0,868.9164,0,4.508,3.147,187,2.424,3.12,0.5347895,0,51.66,59.32,33.7,35.52
"2017-01-01 23:00:00",268903,0.851,186.8,-2.222,70.4,0,0,868.9572,0,4.358,3.15,192,2.417,3.108,0.2996362,0,51.66,59.32,33.7,35.52
"2017-01-01 23:10:00",268904,0.767,185.7,-2.259,70.38,0,0,869.0148,0,4.357,3.148,185,2.418,3.105,0.1137867,0,51.6,59.26,33.69,35.51
"2017-01-01 23:20:00",268905,0.809,173,-2.298,70.75,0,0,868.8455,0,4.289,3.15,188,2.411,3.099,0.1744701,0,51.6,59.26,33.69,35.51
"2017-01-01 23:30:00",268906,0.971,169.4,-2.099,69.87,0,0,868.6234,0,4.813,3.143,197,2.402,3.076,0.4513262,0,51.6,59.32,33.69,35.52
"2017-01-01 23:40:00",268907,1.278,189.5,-1.805,68.1,0,0,868.4356,0,4.614,3.144,180,2.401,3.068,0.352719,0,51.6,59.26,33.69,35.51
"2017-01-01 23:50:00",268908,0.749,201.2,-1.66,67.86,0,0,868.1658,0,4.317,3.146,189,2.397,3.06,0.2882428,0,51.6,59.26,33.69,35.51
